This is the latest recevied weather packets stored in our database for station/object K9NZF-1. If no packets are shown the sender has not sent any weather packets the latest 10 day(s).
| Time | Temp. | Humidity | Pressure | Rain* | Wind** | Luminosity | Snow |
|---|---|---|---|---|---|---|---|
| 1778016828 | 10.56° C | 92% | 1007.5 hPa | 2.54 mm | - | 28 W/m² | - |
| 1778016767 | 10.56° C | 92% | 1007.5 hPa | 2.54 mm | - | 30 W/m² | - |
| 1778016706 | 10.56° C | 92% | 1007.4 hPa | 2.54 mm | - | 32 W/m² | - |
| 1778016645 | 10.56° C | 92% | 1007.4 hPa | 2.54 mm | - | 28 W/m² | - |
| 1778016588 | 10.56° C | 92% | 1007.4 hPa | 2.79 mm | - | 25 W/m² | - |
| 1778016526 | 10.56° C | 92% | 1007.4 hPa | 2.79 mm | - | 26 W/m² | - |
| 1778016466 | 10.56° C | 92% | 1007.3 hPa | 3.05 mm | - | 25 W/m² | - |
| 1778016408 | 10.56° C | 92% | 1007.3 hPa | 3.3 mm | - | 21 W/m² | - |
| 1778016286 | 10.56° C | 92% | 1007.3 hPa | 3.3 mm | - | 21 W/m² | - |
| 1778016225 | 10.56° C | 92% | 1007.3 hPa | 3.56 mm | - | 21 W/m² | - |
| 1778016167 | 10.56° C | 92% | 1007.3 hPa | 3.3 mm | - | 21 W/m² | - |
| 1778016107 | 10.56° C | 92% | 1007.3 hPa | 3.3 mm | - | 21 W/m² | - |
| 1778016050 | 10.56° C | 92% | 1007.2 hPa | 3.3 mm | - | 19 W/m² | - |
| 1778015986 | 10.56° C | 92% | 1007.1 hPa | 3.3 mm | - | 19 W/m² | - |
| 1778015921 | 10.56° C | 92% | 1007.1 hPa | 3.56 mm | - | 21 W/m² | - |
| 1778015863 | 10.56° C | 92% | 1007.1 hPa | 3.56 mm | - | 19 W/m² | - |
| 1778015807 | 10.56° C | 92% | 1007.1 hPa | 3.56 mm | - | 19 W/m² | - |
| 1778015735 | 10.56° C | 92% | 1007 hPa | 3.81 mm | - | 18 W/m² | - |
| 1778015675 | 10.56° C | 92% | 1007 hPa | 3.56 mm | - | 23 W/m² | - |
| 1778015615 | 10.56° C | 92% | 1007 hPa | 3.56 mm | - | 26 W/m² | - |
| 1778015556 | 10.56° C | 92% | 1007 hPa | 3.81 mm | - | 33 W/m² | - |
| 1778015496 | 10.56° C | 92% | 1007 hPa | 3.81 mm | - | 32 W/m² | - |
| 1778015437 | 10.56° C | 92% | 1007 hPa | 3.81 mm | - | 32 W/m² | - |
| 1778015374 | 10.56° C | 92% | 1007 hPa | 3.81 mm | - | 30 W/m² | - |
| 1778015313 | 10.56° C | 92% | 1007 hPa | 3.81 mm | - | 28 W/m² | - |
* Rain latest hour (hover to see other rain measurements)
** Current wind speed in m/s (hover to see current wind gust speed)